Home > Weather > Troisdorf > Past weeks

Flag for Germany Weather for the Past 2 Weeks in Troisdorf, North Rhine-Westphalia, Germany

Now
46 °F

Light rain. Passing clouds.


Feels Like: 38 °F
Forecast: 40 / 48 °F
Wind: 22 mph from South

Location: Koeln / Bonn

Current Time: Feb 8, 2016 at 7:36:56 AM

Latest Report: Feb 8, 2016 at 7:20 AM


Visibility: N/A

Pressure: 29.36 "Hg

Humidity: 76%

Dew point: 39 °F

Location of TroisdorfLocation

Historic Weather in Troisdorf — Graph

°F

Troisdorf Temperature Yesterday

Maximum temperature yesterday: 54 °F (at 6:20 AM)
Minimum temperature yesterday: 39 °F (at 9:20 PM)
Average temperature yesterday: 48 °F

High & Low Weather Summary for the Past Weeks

 TemperatureHumidityPressure
High57 °F (Jan 25, 2:50 PM)100% (Jan 24, 4:20 PM)30.48 "Hg (Jan 24, 4:20 PM)
Low32 °F (Jan 29, 3:20 AM)55% (Jan 27, 3:20 PM)29.39 "Hg (Feb 8, 6:20 AM)
Average46 °F82%30.07 "Hg
* Reported Jan 24 6:20 AM — Feb 8 6:20 AM, Troisdorf, Weather by CustomWeather, © 2016

Note: Actual official high and low records may vary slightly from our data, if they occured in-between our weather recording intervals... More about our weather records

Advertising

Troisdorf Weather History for the Previous 24 Hours

 ConditionsComfort  
Time TempWeatherWind HumidityBarometerVisibility
6:20 AM
Mon, Feb 8
46 °FPassing clouds.21 mph76%29.39 "HgN/A
5:50 AM46 °FPassing clouds.16 mph71%29.42 "HgN/A
5:20 AM46 °FPassing clouds.20 mph71%29.42 "HgN/A
4:20 AM46 °FPassing clouds.20 mph71%29.47 "HgN/A
3:50 AM46 °FPassing clouds.18 mph71%29.47 "HgN/A
3:20 AM46 °FPassing clouds.17 mph66%29.50 "HgN/A
2:50 AM46 °FPassing clouds.20 mph66%29.53 "HgN/A
2:20 AM46 °FPartly cloudy.20 mph66%29.53 "HgN/A
1:50 AM46 °FPassing clouds.17 mph66%29.56 "HgN/A
1:20 AM46 °FClear.17 mph66%29.56 "Hg10 mi
12:50 AM46 °FClear.17 mph66%29.59 "Hg10 mi
12:20 AM45 °FClear.14 mph71%29.59 "Hg10 mi
11:50 PM
Sun, Feb 7
45 °FClear.14 mph71%29.62 "Hg10 mi
11:20 PM43 °FClear.14 mph71%29.62 "Hg10 mi
10:50 PM43 °FPassing clouds.10 mph71%29.65 "HgN/A
10:20 PM43 °FClear.12 mph71%29.65 "Hg10 mi
9:50 PM41 °FClear.10 mph76%29.68 "Hg10 mi
9:20 PM39 °FClear.10 mph81%29.68 "Hg10 mi
8:50 PM43 °FClear.12 mph76%29.68 "Hg10 mi
8:20 PM41 °FClear.9 mph76%29.68 "Hg10 mi
7:50 PM43 °FClear.9 mph71%29.68 "Hg10 mi
7:20 PM45 °FClear.9 mph71%29.68 "Hg10 mi
6:50 PM43 °FClear.9 mph71%29.68 "Hg10 mi
6:20 PM46 °FPassing clouds.9 mph62%29.65 "HgN/A
5:50 PM46 °FPassing clouds.14 mph62%29.65 "HgN/A
5:20 PM48 °FScattered clouds.14 mph58%29.65 "HgN/A
4:20 PM48 °FBroken clouds.14 mph62%29.62 "HgN/A
3:50 PM48 °FBroken clouds.17 mph62%29.62 "HgN/A
3:20 PM50 °FPartly sunny.13 mph58%29.62 "HgN/A
2:50 PM50 °FPartly sunny.15 mph58%29.59 "HgN/A
2:20 PM50 °FPartly sunny.9 mph71%29.59 "HgN/A
1:50 PM48 °FPartly sunny.12 mph76%29.59 "HgN/A
1:20 PM48 °FBroken clouds.10 mph76%29.59 "HgN/A
12:50 PM46 °FLight rain. Partly sunny.12 mph82%29.59 "HgN/A
12:20 PM46 °FPartly sunny.10 mph82%29.59 "HgN/A
11:50 AM46 °FLight rain. Partly sunny.16 mph82%29.56 "HgN/A
11:20 AM48 °FLight rain. Partly sunny.17 mph71%29.56 "HgN/A
10:50 AM50 °FBroken clouds.15 mph71%29.53 "HgN/A
10:20 AM50 °FBroken clouds.15 mph71%29.53 "HgN/A
9:50 AM52 °FBroken clouds.14 mph72%29.50 "HgN/A
9:20 AM52 °FBroken clouds.13 mph72%29.50 "HgN/A
8:50 AM52 °FPartly sunny.14 mph72%29.50 "HgN/A
8:20 AM52 °FBroken clouds.14 mph67%29.50 "HgN/A
7:50 AM54 °FPartly cloudy.20 mph63%29.50 "HgN/A
7:20 AM54 °FClear.15 mph63%29.50 "Hg10 mi
Weather by CustomWeather, © 2016

See weather overviewHow to use our weather pages